Location: Poughquag
(41.6090°N, 73.6820°W)
Time: 03:30:07
(UTC-04:00)

Vanguard 1 Rocket - Pass Details

Date: 02 June 2020
Orbit: 653 x 4224 km, 34.3° (Epoch: 06 July)

Event Time Altitude Azimuth Distance (km) Brightness Sun altitude
Rises 20:45:04 0° 191° (S) 8,332 12.0 -4.2°
Reaches altitude 10° 20:53:28 10° 178° (S) 7,419 11.7 -5.4°
Maximum altitude 21:09:36 21° 139° (SE) 6,075 11.0 -7.8°
Drops below altitude 10° 21:22:47 10° 99° (E) 6,097 11.1 -9.7°
Sets 21:28:22 0° 85° (E) 6,567 11.4 -10.4°
